C/2015 D3 ( PanSTARRS )

Japanese version
Home page
Updated on April 13, 2018

---------------------------------------------------------------------

* Profile

Discovery Date February 19, 2015
Magnitude 20.4 mag
Discoverer Pan-STARRS 1 telescope (Haleakala)

* Pictures

* Orbital Elements

Epoch 2016 May 12.0 TT = JDT 2457520.5
T 2016 Apr. 30.78805 TT                                 MPCW
q   8.1487304            (2000.0)            P               Q
z  -0.0003023      Peri.    2.84984     -0.90712770     +0.28893961
 +/-0.0000010      Node   156.98045     +0.36899837     +0.19640766
e   1.0024631      Incl.  128.50933     +0.20238461     +0.93698342
From 254 observations 2013 Apr. 8-2018 Mar. 4, mean residual 0".5.

* Magnitudes Graph

        m1 = 5.0 + 5 log d + 10.0 log r

---------------------------------------------------------------------

The orbital elements are published on M.P.E.C. 2018-F152.
The magnitudes graphs are made with Comet for Windows.

---------------------------------------------------------------------

Copyright(C) Seiichi Yoshida (comet@aerith.net). All rights reserved.